{"data":{"norad_id":43768,"epoch":"2026-09-20T01:52:33.348000Z","epoch_age_seconds":91295,"freshness":"FRESH","line1":"1 43768U 18099L   26263.07816375  .00003561  00000+0  18744-3 0  9992","line2":"2 43768  97.4205 309.0407 0003921 350.6992   9.4167 15.16257823426659","mean_motion":15.16257823,"eccentricity":0.0003921,"inclination_deg":97.4205,"raan_deg":309.0407,"arg_perigee_deg":350.6992,"mean_anomaly_deg":9.4167,"bstar":0.00018744,"rev_number":42665,"period_min":94.970655923864,"perigee_km":514.45891013758,"apogee_km":519.86620405025,"semimajor_km":6895.2995570939,"source":"CELESTRAK","updated_at":"2026-09-20T09:00:14.402568Z"}}